EST,Max TemperatureF,Mean TemperatureF,Min TemperatureF,Max Dew PointF,MeanDew PointF,Min DewpointF,Max Humidity, Mean Humidity, Min Humidity, Max Sea Level PressureIn, Mean Sea Level PressureIn, Min Sea Level PressureIn, Max VisibilityMiles, Mean VisibilityMiles, Min VisibilityMiles, Max Wind SpeedMPH, Mean Wind SpeedMPH, Max Gust SpeedMPH,PrecipitationIn, CloudCover, Events, WindDirDegrees
2013-2-1,17,14,10,10,7,3,83,75,67,30.16,30.07,29.88,9,3,1,18,10,24,T,8,Snow,260
2013-2-2,18,14,9,11,6,3,84,70,56,30.12,30.04,29.99,10,4,0,13,3,15,0.03,8,Snow,211
2013-2-3,17,14,10,10,8,3,80,74,67,30.01,29.89,29.82,10,4,0,17,7,22,0.01,8,Snow,267
2013-2-4,20,10,-1,6,3,-6,86,68,49,30.01,29.97,29.94,10,10,7,12,4,14,T,5,Snow,269
2013-2-5,25,12,-2,19,11,-7,87,74,60,30.01,29.83,29.68,10,6,1,17,6,24,T,7,Snow,269
2013-2-6,29,17,5,23,13,2,92,71,50,30.25,30.17,30.04,10,7,1,16,3,22,0.06,6,Snow,249
2013-2-7,30,28,26,27,25,23,92,85,78,30.19,30.10,30.01,8,3,1,15,5,20,0.14,8,Snow,84
2013-2-8,26,16,5,22,16,3,92,80,68,30.41,30.23,30.04,10,7,1,20,9,29,0.01,6,Snow,14
2013-2-9,32,15,-3,15,6,-8,96,72,47,30.43,30.34,30.19,10,10,10,9,2,14,0.00,3,,149
2013-2-10,38,26,13,36,23,11,89,73,56,30.19,29.87,29.48,10,9,3,16,6,29,0.18,6,Rain,145
2013-2-11,44,37,30,38,31,19,96,85,73,29.80,29.50,29.35,10,6,1,24,9,29,0.07,8,Rain-Snow,246
2013-2-12,30,28,26,23,20,17,78,71,63,29.99,29.91,29.83,10,7,2,21,8,26,T,8,Snow,261
2013-2-13,38,32,25,29,25,19,85,75,64,29.84,29.72,29.66,10,8,5,13,6,18,0.00,8,,209
2013-2-14,34,30,25,32,28,18,96,60,23,29.89,29.67,29.55,9,3,0,23,6,32,0.37,8,Fog-Snow,349
2013-2-15,25,22,18,18,15,12,81,75,68,30.14,30.03,29.86,10,4,0,16,9,20,0.03,8,Fog-Snow,296
2013-2-16,21,15,9,14,9,1,88,69,49,30.15,30.07,30.02,10,5,0,14,6,18,0.08,8,Fog-Snow,322
2013-2-17,22,14,6,10,6,1,83,70,57,30.20,30.16,30.11,10,9,5,9,3,13,T,6,Snow,224
2013-2-18,43,30,16,36,21,8,92,69,46,30.09,29.72,29.38,10,9,4,16,8,25,0.05,8,Rain,151
2013-2-19,42,29,15,38,21,9,92,82,71,29.91,29.56,29.20,10,3,0,28,16,37,0.09,8,Rain-Snow,279
2013-2-20,23,20,16,16,12,9,80,74,67,30.30,30.09,29.88,8,2,0,24,16,31,0.02,8,Fog-Snow,329
2013-2-21,23,19,15,15,12,9,80,71,62,30.42,30.36,30.28,10,9,7,18,8,25,T,7,Snow,39
2013-2-22,30,24,18,25,20,10,92,77,62,30.29,29.98,29.78,10,6,1,16,6,23,0.04,8,Snow,95
2013-2-23,32,30,27,27,25,23,85,82,78,29.84,29.77,29.72,10,3,1,13,4,16,0.06,8,Snow,223
2013-2-24,37,32,27,28,25,21,92,74,56,30.14,29.93,29.80,10,6,1,10,4,14,0.04,7,Snow,277
2013-2-25,36,27,17,27,23,15,96,78,59,30.20,30.16,30.12,10,10,8,8,2,14,0.00,7,,199
2013-2-26,37,32,26,25,23,18,85,70,54,30.16,29.93,29.72,10,10,10,25,11,37,0.00,7,,66
2013-2-27,36,35,33,31,30,26,89,79,69,29.70,29.64,29.59,10,5,1,16,11,22,0.02,8,Snow,27
2013-2-28,34,31,27,30,26,15,89,74,58,30.08,29.83,29.67,10,6,2,18,14,26,0.02,8,Snow,6